Total_Precipitation_Accumulation
1.98 2.16 2.47 2.96 3.77 4.55 5.27 5.41 5.76 5.31 4.65 4.12 3.73 3.62 3.45 3.16 3.06 2.95 2.89 2.74 2.48 2.39 2.62 2.49 2.54 2.35 2.41 2.41 2.50 2.76 2.89 2.51 2.60 3.09 2.69 2.08 1.70 1.68 1.58 1.60 1.70 1.73 1.81
2.06 2.40 2.93 3.33 3.36 3.91 4.64 4.69 4.42 4.24 3.83 3.49 3.33 3.17 3.13 2.80 2.64 2.53 2.65 2.44 2.26 2.32 2.34 2.46 2.31 2.24 2.38 2.36 2.39 2.63 2.61 2.30 2.50 3.03 3.19 2.65 2.26 1.91 1.52 1.53 1.62 1.72 1.96
1.90 2.33 2.75 3.19 3.17 3.57 3.66 3.30 3.16 3.26 3.23 3.09 2.99 2.87 2.88 2.70 2.46 2.33 2.39 2.21 2.03 2.05 2.06 2.03 2.10 2.21 2.00 2.16 2.34 2.48 2.55 2.45 2.38 2.65 3.14 2.97 2.64 2.24 1.83 1.67 1.78 1.97 2.15
1.36 1.64 1.98 2.40 2.61 2.72 2.64 2.62 2.60 2.67 2.88 2.88 2.67 2.51 2.27 2.21 2.18 2.10 2.14 2.14 1.91 1.82 1.83 1.82 1.99 2.08 2.00 2.26 1.96 2.09 2.36 2.58 2.40 2.42 2.47 2.57 2.82 2.79 2.36 1.98 1.85 1.95 2.10
1.05 1.19 1.28 1.49 1.78 2.04 2.12 2.12 2.42 2.55 2.57 2.55 2.52 2.57 2.32 2.18 2.16 2.29 2.49 2.42 2.09 1.76 1.61 1.70 1.88 2.00 2.05 2.14 2.07 2.17 2.12 2.19 2.26 2.35 2.36 2.51 2.77 2.61 2.52 2.34 2.12 2.01 1.85
0.83 1.01 1.04 1.07 1.21 1.36 1.51 1.65 1.96 2.20 2.26 2.21 2.21 2.29 2.34 2.33 2.17 2.15 2.22 2.15 2.00 1.81 1.64 1.66 1.88 1.97 2.04 2.07 2.10 2.08 1.98 2.07 2.19 2.23 2.27 2.49 2.54 2.49 2.59 2.44 2.26 2.12 1.86
0.65 0.83 0.82 0.86 0.97 1.01 1.12 1.35 1.58 1.75 1.86 1.93 2.00 2.08 2.28 2.26 2.05 1.87 1.93 1.92 1.78 1.70 1.69 1.65 1.92 2.05 2.05 2.02 2.11 2.08 2.05 2.16 2.24 2.25 2.28 2.35 2.34 2.38 2.60 2.65 2.37 2.18 1.96
0.60 0.64 0.59 0.61 0.76 0.83 0.92 1.10 1.27 1.37 1.48 1.69 1.90 1.89 2.04 1.92 1.82 1.96 1.85 1.75 1.56 1.59 1.82 1.93 1.95 1.95 1.99 2.00 2.28 2.12 2.12 2.20 2.23 2.11 2.46 2.43 2.29 2.55 2.80 2.97 3.02 2.67 2.40
0.56 0.55 0.48 0.50 0.55 0.60 0.68 0.88 1.18 1.25 1.29 1.37 1.58 1.69 1.69 1.72 1.84 2.03 1.96 1.80 1.73 1.63 1.83 2.00 2.09 2.03 2.01 2.13 2.35 2.31 2.34 2.44 2.32 2.29 2.55 2.49 2.37 2.46 2.61 2.92 3.22 3.25 2.94
0.64 0.68 0.55 0.53 0.54 0.54 0.63 0.71 0.89 1.12 1.30 1.28 1.28 1.31 1.57 1.64 1.78 1.88 1.82 1.80 1.77 1.80 1.89 1.89 1.93 1.93 1.91 2.04 2.38 2.39 2.41 2.59 2.53 2.46 2.49 2.49 2.38 2.49 2.52 2.66 3.03 3.33 3.34
0.59 0.67 0.52 0.50 0.50 0.56 0.61 0.70 0.84 1.11 1.29 1.20 1.23 1.35 1.52 1.61 1.66 1.83 1.82 1.78 1.79 1.88 1.89 1.88 1.90 1.85 1.77 1.88 2.08 2.19 2.38 2.52 2.55 2.48 2.50 2.49 2.64 2.70 2.58 2.68 2.82 3.07 3.27
0.64 0.68 0.62 0.70 0.73 0.81 0.82 0.86 0.95 1.12 1.21 1.21 1.27 1.35 1.45 1.53 1.61 1.67 1.76 1.82 1.82 1.92 1.96 1.96 1.93 1.78 1.77 1.88 1.98 2.11 2.28 2.40 2.47 2.57 2.66 2.45 2.58 2.70 2.64 2.66 2.67 2.82 3.11
0.79 0.75 0.79 0.91 0.89 0.93 1.05 1.07 1.13 1.18 1.28 1.38 1.36 1.32 1.38 1.38 1.44 1.55 1.62 1.76 1.85 1.93 2.03 2.06 1.98 1.91 1.93 2.01 2.07 2.14 2.27 2.34 2.39 2.50 2.50 2.45 2.61 2.48 2.56 2.67 2.63 2.64 2.69
0.84 0.77 0.82 0.90 0.94 0.99 1.11 1.21 1.22 1.18 1.25 1.29 1.34 1.36 1.36 1.41 1.50 1.60 1.67 1.76 1.78 1.85 1.87 1.85 1.94 2.01 2.04 2.05 2.06 2.07 2.10 2.15 2.20 2.17 2.09 2.04 2.08 2.15 2.35 2.35 2.36 2.46 2.54
0.87 0.82 0.84 0.90 1.06 1.08 1.04 1.08 1.14 1.16 1.29 1.30 1.26 1.33 1.45 1.47 1.52 1.55 1.59 1.65 1.68 1.67 1.84 1.86 1.96 2.06 2.03 1.92 1.97 1.98 1.90 2.05 1.98 1.84 1.80 1.81 1.89 1.91 1.99 1.90 2.01 2.23 2.30
0.89 0.91 1.00 1.10 1.09 0.98 0.95 0.98 0.94 1.02 1.19 1.30 1.41 1.50 1.51 1.44 1.51 1.55 1.58 1.61 1.67 1.75 1.83 1.88 1.99 2.06 1.92 1.98 2.01 2.02 1.99 2.01 1.94 1.89 1.81 1.67 1.67 1.66 1.67 1.66 1.72 1.89 2.03
0.83 0.94 1.04 1.06 1.06 1.09 1.03 0.94 0.86 0.98 1.28 1.37 1.39 1.58 1.70 1.61 1.66 1.69 1.70 1.68 1.69 1.82 1.90 2.02 2.08 2.03 2.15 2.10 1.93 1.93 1.88 1.91 1.93 1.95 1.92 1.62 1.43 1.56 1.50 1.62 1.60 1.58 1.65
0.68 0.81 0.87 0.91 0.96 0.99 0.98 0.93 0.95 1.01 1.27 1.46 1.54 1.80 1.97 1.84 1.84 1.85 1.86 1.90 1.97 1.99 2.09 2.11 2.03 2.00 2.09 2.06 1.74 1.64 1.55 1.66 1.75 1.79 1.84 1.83 1.72 1.69 1.69 1.71 1.70 1.63 1.61
0.69 0.74 0.86 0.93 1.05 1.18 1.16 1.12 1.20 1.31 1.48 1.65 1.77 1.99 2.23 2.35 2.30 2.16 2.22 2.29 2.28 2.24 2.30 2.33 2.27 2.15 2.16 2.01 1.65 1.49 1.41 1.55 1.64 1.69 1.68 1.69 1.60 1.64 1.53 1.51 1.55 1.55 1.52
0.74 0.89 1.07 1.10 1.15 1.33 1.33 1.35 1.47 1.69 1.84 1.84 1.86 2.02 2.24 2.34 2.31 2.32 2.51 2.62 2.53 2.42 2.45 2.35 2.22 2.10 2.12 2.06 1.72 1.52 1.44 1.58 1.67 1.76 1.72 1.69 1.62 1.58 1.40 1.32 1.37 1.35 1.37
0.79 0.85 0.89 1.03 1.16 1.29 1.41 1.59 1.67 1.81 1.86 1.86 1.87 2.00 2.22 2.48 2.43 2.46 2.56 2.66 2.65 2.64 2.64 2.52 2.38 2.21 2.15 2.12 1.80 1.60 1.47 1.55 1.62 1.56 1.55 1.54 1.54 1.32 1.21 1.17 1.20 1.24 1.26
0.84 0.89 0.84 0.94 1.13 1.35 1.58 1.69 1.71 1.78 1.91 1.91 1.87 1.93 2.18 2.29 2.35 2.51 2.57 2.68 2.77 2.75 2.71 2.67 2.47 2.41 2.34 2.05 1.78 1.61 1.56 1.61 1.65 1.61 1.57 1.54 1.42 1.19 1.09 0.97 0.92 0.97 0.96
0.94 1.02 1.04 1.05 1.17 1.34 1.58 1.80 1.84 1.83 1.77 1.73 1.71 1.81 1.97 2.06 2.21 2.33 2.27 2.32 2.45 2.43 2.45 2.46 2.39 2.42 2.53 2.35 1.89 1.60 1.50 1.53 1.60 1.71 1.76 1.56 1.37 1.22 1.09 1.04 0.96 0.88 0.82
1.11 1.13 1.23 1.24 1.26 1.35 1.53 1.72 1.74 1.76 1.75 1.67 1.64 1.75 1.98 2.08 2.15 2.21 2.18 2.23 2.27 2.33 2.39 2.41 2.35 2.36 2.48 2.44 2.12 1.79 1.58 1.47 1.42 1.45 1.44 1.33 1.25 1.14 1.02 0.96 0.87 0.78 0.82
1.15 1.15 1.22 1.29 1.30 1.34 1.52 1.66 1.70 1.76 1.82 1.79 1.77 1.89 1.97 2.05 2.21 2.27 2.28 2.27 2.26 2.22 2.22 2.21 2.14 2.13 2.24 2.25 2.04 1.77 1.61 1.49 1.44 1.40 1.37 1.33 1.34 1.23 1.14 1.07 1.03 1.03 1.06
1.23 1.28 1.32 1.32 1.30 1.32 1.45 1.57 1.76 1.91 1.95 1.90 1.89 1.88 1.87 1.92 1.95 1.98 1.93 1.87 1.80 1.77 1.73 1.71 1.62 1.59 1.76 1.75 1.48 1.34 1.36 1.37 1.34 1.26 1.27 1.34 1.39 1.34 1.26 1.22 1.18 1.19 1.18